{"data":{"norad_id":69311,"intl_designator":"2026-119R","name":"STARLINK-37795","alt_names":[],"object_type":"PAYLOAD","status":"ACTIVE","operator":null,"country":"US","launch_date":"2026-05-30","launch_site_code":"AFWTR","launch_vehicle":null,"mission":null,"orbit_class":"UNKNOWN","rcs_meters":null,"size_class":null,"mass_kg":null,"dimensions":null,"purposes":["comms"],"wikipedia_slug":null,"has_3d_model":false,"image_url":null,"decayed_at":null,"tle_current":{"epoch":"2026-09-19T12:15:44.943840Z","epoch_age_seconds":114553,"freshness":"FRESH","line1":"1 69311U 26119R   26262.51093685  .00016836  00000+0  52258-3 0  9992","line2":"2 69311  97.2809 287.2859 0000915 101.7418 258.3927 15.33450333 18516","mean_motion":15.33450333,"eccentricity":9.15e-5,"inclination_deg":97.2809,"raan_deg":287.2859,"arg_perigee_deg":101.7418,"mean_anomaly_deg":258.3927,"bstar":0.00052258,"rev_number":1851,"period_min":93.905878071892,"perigee_km":464.90111198409,"apogee_km":466.15350255232,"semimajor_km":6843.6643072682,"source":"CELESTRAK","updated_at":"2026-09-20T09:00:44.156945Z"}}}